Regional Weather Roundup
Issued by NWS Little Rock, AR

Home | Current Version | Previous Version | Graphics & Text | Print | Product List | Glossary On
Versions: 1 2 3 4 5 6 7 8 9 10 11 12 13 14 15 16 17 18 19 20 21 22 23 24 25 26 27 28 29 30 31
000
ASUS44 KLZK 171905
RWRLZK

WEATHER ROUNDUP FOR ARKANSAS
NATIONAL WEATHER SERVICE LITTLE ROCK AR
200 PM CDT TUE OCT 17 2017

NOTE: "FAIR" INDICATES FEW OR NO CLOUDS BELOW 12,000 FEET WITH NO
SIGNIFICANT WEATHER AND/OR OBSTRUCTIONS TO VISIBILITY.

ARZ001-003-010-029-172000-
NORTHWEST ARKANSAS

CITY           SKY/WX    TMP DP  RH WIND       PRES   REMARKS
FAYETTEVILLE   SUNNY     67  42  40 S6        30.25F
FORT SMITH     SUNNY     70  39  32 SE5       30.25F
HARRISON       SUNNY     68  39  34 SE8       30.26F
BENTONVILLE    SUNNY     67  42  40 S8        30.26F
ROGERS         SUNNY     68  42  38 SW8       30.26F
SILOAM SPGS    SUNNY     68  43  40 S10       30.26F
HIGHFILL       SUNNY     68  43  40 SW10      30.25F
SPRINGDALE     SUNNY     66  41  39 S8        30.27F
$$

ARZ004-005-016-172000-
NORTH CENTRAL ARKANSAS

CITY           SKY/WX    TMP DP  RH WIND       PRES   REMARKS
BATESVILLE     MOSUNNY   67  41  38 VRB3      30.28F
FLIPPIN        SUNNY     67  37  33 VRB3      30.27F
MTN HOME       SUNNY     67  39  35 S7        30.26
$$

ARZ040-041-172000-
WEST CENTRAL ARKANSAS

CITY           SKY/WX    TMP DP  RH WIND       PRES   REMARKS
MENA           SUNNY     72  37  28 NE5       30.26F
$$

ARZ009-017-025-026-028-172000-
NORTHEAST ARKANSAS

CITY           SKY/WX    TMP DP  RH WIND       PRES   REMARKS
CORNING        FAIR      68  45  42 SW6       30.28
JONESBORO      SUNNY     69  44  40 CALM      30.27F
NEWPORT        SUNNY     67  41  38 VRB3      30.28F
WALNUT RIDGE   PTSUNNY   65  39  38 VRB5      30.28F
BLYTHEVILLE    SUNNY     67  43  41 S6        30.28F
$$

ARZ022-023-033-042-044-172000-
CENTRAL ARKANSAS

CITY           SKY/WX    TMP DP  RH WIND       PRES   REMARKS
LITTLE ROCK    MOSUNNY   68  41  37 VRB5      30.28F
N LITTLE ROCK    N/A     69  41  36 E5        30.29F
JACKSONVILLE   SUNNY     69  42  37 CALM      30.27F
SEARCY         SUNNY     68  43  40 N3        30.29F
HOT SPRINGS    SUNNY     71  38  29 VRB3      30.27F
RUSSELLVILLE   SUNNY     67  39  35 VRB6      30.27F
CLINTON        FAIR      68  41  37 VRB3      30.28F
$$

ARZ036-172000-
EAST ARKANSAS

CITY           SKY/WX    TMP DP  RH WIND       PRES   REMARKS
WEST MEMPHIS   MOSUNNY   69  42  37 VRB3      30.25F
$$

ARZ050-053-066-070-073-172000-
SOUTHWEST ARKANSAS

CITY           SKY/WX    TMP DP  RH WIND       PRES   REMARKS
ARKADELPHIA    FAIR      71  42  35 E6        30.27F
CAMDEN         SUNNY     75  34  22 NE7       30.25F
TEXARKANA      SUNNY     70  39  32 CALM      30.25F
EL DORADO      SUNNY     72  45  37 NE7       30.25F
DE QUEEN       SUNNY     70  41  34 N3        30.24F
$$

ARZ056-057-069-172000-
SOUTHEAST ARKANSAS

CITY           SKY/WX    TMP DP  RH WIND       PRES   REMARKS
PINE BLUFF     SUNNY     70  38  31 MISG      30.26F
STUTTGART      SUNNY     70  40  33 NE6       30.27F
MONTICELLO     SUNNY     72  40  31 VRB5      30.25F

$$






USA.gov is the U.S. government's official web portal to all federal, state and local government web resources and services.